TIME,DELAY(SENSOR),PRES,T(CTD),SAL,OXYGEN,RAWTEMP,T(OPTODE),TCPHASE,FLUOR,BETA(BETA700),BETA(BETA412),BETA(BETA440),CDOM,C(CSC),ED(ED412.40),ED(ED444.00),ED(ED489.70),ED(ED554.30),LU(LU411.80),LU(LU443.40),LU(LU489.60),LU(LU554.10),COMP,TILTX,TILTX(TILTY),CHECK
1369518517,5810,497.7799987792969000,6.4235000610351560,34.1268997192382800,71.8529434204101600,606.1904296875000000,6.3841128349304200,49.9767494201660160,52,104,88,78,79,14827,2147746980,2147423241,2148005650,2147871817,2147630290,2147068352,2148242477,2147196681,836,4,13,34451
1369518689,5809,483.9899902343750000,6.6133999824523930,34.1152992248535160,79.4742736816406200,598.3054199218750000,6.6389961242675780,48.9465713500976560,52,101,90,78,78,14823,2147746550,2147426212,2148006482,2147872411,2147630189,2147075611,2148240228,2147200219,2340,4,13,40812
1369518804,5807,472.4899902343750000,6.8687000274658200,34.1142997741699200,87.3883666992187500,591.7266235351562000,6.8512020111083980,47.9357414245605500,50,102,87,80,79,14825,2147743158,2147422884,2148005979,2147874285,2147626770,2147075584,2148238162,2147197915,1313,4,13,21083
1369518907,5804,462.0899963378906000,6.9987001419067380,34.1082992553710940,93.7561569213867200,587.7315063476562000,6.9798741340637210,47.1709709167480500,52,102,90,79,77,14827,2147742802,2147423981,2148007488,2147876242,2147628123,2147074029,2148238518,2147200713,258,4,13,65025
1369519024,5808,450.4500122070312500,7.1455001831054690,34.1062011718750000,98.3600387573242200,581.3057861328125000,7.1865200996398930,46.5738296508789060,51,104,86,79,77,14821,2147745417,2147424704,2148005641,2147872164,2147625298,2147076946,2148241691,2147202724,2839,4,13,57871
1369519139,5808,439.2799987792969000,7.5673999786376950,34.0959014892578100,111.1631011962890600,569.8026123046875000,7.5555248260498050,45.0731086730957000,51,103,85,80,76,14821,2147745142,2147424027,2148005312,2147875849,2147624256,2147078747,2148236498,2147201984,1683,4,13,57497
1369519254,5805,428.6499938964844000,7.7416000366210940,34.0909996032714840,121.4467010498046900,564.3911743164062000,7.7287077903747560,43.9868888854980500,51,104,88,80,76,14825,2147744813,2147422281,2148002861,2147876224,2147623012,2147079076,2148238656,2147203053,309,3,13,25609
1369519383,5810,417.3900146484375000,7.8548998832702640,34.0825996398925800,128.2669982910156200,560.9234008789062000,7.8395600318908690,43.2953414916992200,51,103,84,80,75,14821,2147741165,2147425728,2148000566,2147878290,2147623332,2147085933,2148233042,2147200228,2302,4,13,39505
1369519510,5807,406.6300048828125000,8.2575998306274410,34.0812988281250000,141.7828063964843800,547.6245727539062000,8.2637243270874020,41.8798904418945300,50,103,87,81,74,14824,2147738962,2147424420,2148005869,2147875949,2147623104,2147081234,2148229586,2147201508,1930,4,13,57307
1369519651,5807,394.9400024414062500,8.4720001220703120,34.0840988159179700,152.6329040527343800,541.6187744140625000,8.4547958374023440,40.8832817077636700,50,104,89,79,74,14824,2147740004,2147421750,2148003565,2147875840,2147617024,2147083318,2148233865,2147203172,650,4,13,3824
1369519778,5806,383.9899902343750000,8.7466001510620120,34.0848999023437500,158.6941986083984400,533.0822753906250000,8.7258911132812500,40.2578887939453100,50,103,89,80,73,14823,2147740489,2147425645,2148002450,2147874852,2147616886,2147082395,2148230582,2147203355,2890,4,13,10579
1369519905,5807,373.0499877929687500,9.0436000823974610,34.0884017944335940,169.8619995117187500,523.2479858398438000,9.0374946594238280,39.2478904724121100,50,104,87,81,72,14825,2147738230,2147425993,2148004900,2147873792,2147614701,2147090715,2148228507,2147205238,2503,3,13,3030
1369520034,5809,362.3599853515625000,9.3717002868652340,34.1001014709472660,179.3311004638672000,513.0571289062500000,9.3596239089965820,38.3994789123535160,50,105,89,80,71,14828,2147736594,2147426057,2148007451,2147872905,2147611657,2147088036,2148226121,2147205494,1951,4,13,22683
1369520173,5808,351.4100036621094000,9.7214002609252930,34.1142997741699200,186.5800933837890600,501.8120117187500000,9.7142019271850590,37.7156715393066400,50,105,88,80,71,14826,2147736950,2147423936,2148007698,2147871744,2147612370,2147095908,2148228342,2147202752,656,4,14,56825
1369520332,5807,337.7600097656250000,10.0040998458862300,34.1269989013671900,195.3562927246093800,492.7453918457031000,9.9994401931762700,36.9914283752441400,50,103,86,80,71,14827,2147735917,2147426980,2148007561,2147872100,2147608448,2147094363,2148225389,2147207140,3437,4,13,14699
1369520435,5811,327.2399902343750000,10.3162002563476560,34.1333007812500000,198.8822937011718800,481.6170043945312500,10.3487796783447270,36.5834388732910160,49,104,85,79,68,14821,2147733595,2147426688,2148013037,2147873106,2147607899,2147101010,2148220525,2147205622,2303,3,13,681
1369520550,5811,315.8299865722656000,10.8324003219604500,34.1539993286132800,203.8730010986328000,465.8239135742187500,10.8431901931762700,36.0159797668457000,49,104,88,79,70,14825,2147730221,2147427291,2148016758,2147873526,2147608237,2147101888,2148217280,2147204141,1237,4,13,59028
1369520667,5807,304.7699890136719000,11.1423997879028320,34.1637992858886700,208.6699981689453000,456.4883117675781000,11.1347303390502930,35.5775794982910160,48,102,88,81,68,14824,2147730633,2147429878,2148019282,2147874889,2147603437,2147108827,2148225289,2147205302,3498,3,13,8064
1369520782,5807,294.4800109863281000,11.3184995651245120,34.1696014404296900,210.5397033691406200,450.7746887207031000,11.3128995895385740,35.3760795593261700,48,103,85,80,69,14823,2147728676,2147437229,2148037056,2147876845,2147604598,2147109897,2148234788,2147203419,2929,3,13,31441
1369520911,5812,283.8500061035156000,12.0825004577636720,34.2114982604980500,211.0914001464843800,426.9466857910156000,12.0540103912353520,34.9614982604980500,49,103,84,81,69,14823,2147727076,2147436800,2148044928,2147874185,2147600475,2147115437,2148233563,2147205430,1104,3,13,25779
1369521062,5809,272.7999877929687500,12.7948999404907230,34.2512016296386700,212.6183013916015600,403.1141967773437500,12.7923698425292970,34.4991188049316400,49,108,88,80,68,14814,2147728201,2147445165,2148063616,2147873024,2147599076,2147126957,2148237878,2147207698,3018,3,13,8689
1369521245,5805,259.4299926757812500,13.6072998046875000,34.3128013610839840,214.6963043212890600,377.3272094726562500,13.5884304046630860,33.9845008850097660,50,103,87,79,67,14821,2147725211,2147456512,2148100278,2147874368,2147593133,2147134390,2148251190,2147209490,861,3,13,15011
1369521372,5804,247.5399932861328000,14.0403003692626950,34.3526000976562500,215.8352966308593800,361.8344116210937500,14.0654602050781250,33.6864013671875000,49,104,85,79,66,14811,2147727469,2147477376,2148140288,2147875712,2147592155,2147156397,2148272685,2147212635,3291,3,13,25885
1369521499,5809,236.2599945068359400,14.9863004684448240,34.4388999938964840,215.8836975097656200,331.4793090820312500,14.9978303909301760,33.2315216064453100,48,106,88,80,67,14810,2147727798,2147499062,2148200749,2147872530,2147588086,2147178294,2148294491,2147214838,2559,3,14,14114
1369521640,5807,225.3099975585937500,15.4867000579833980,34.4989013671875000,217.2790069580078000,315.0542907714844000,15.5012798309326170,32.9146804809570300,49,105,87,79,66,14807,2147730779,2147535506,2148275657,2147873609,2147589659,2147195995,2148328173,2147220589,2363,3,14,19065
1369521791,5805,215.3800048828125000,16.3474006652832030,34.6021003723144500,219.6625976562500000,286.9104003906250000,16.3626098632812500,32.3804206848144500,50,104,85,81,66,14808,2147736621,2147572370,2148360548,2147875008,2147589019,2147228416,2148367250,2147224475,518,3,14,23614
1369521949,5811,202.4199981689453000,17.4223995208740230,34.7284011840820300,217.7720947265625000,247.5466003417968800,17.5654792785644530,31.9255104064941400,51,111,88,81,66,14797,2147759524,2147662939,2148538203,2147878665,2147594834,2147289289,2148451821,2147229074,2900,2,15,24796
1369522004,5809,197.0899963378906200,18.2443008422851560,34.8334999084472660,217.1864013671875000,226.2111053466797000,18.2170391082763670,31.6608905792236330,55,115,88,81,64,14788,2147775725,2147711204,2148624941,2147875949,2147595318,2147319606,2148483446,2147228699,2705,3,15,29743
1369522059,5808,191.8899993896484400,18.3178997039794920,34.8352012634277340,216.8616027832031200,223.0668029785156200,18.3130607604980470,31.6348094940185550,63,110,89,80,63,14787,2147796306,2147771657,2148734582,2147875776,2147606774,2147362779,2148541046,2147238902,2362,2,15,27423
1369522114,5810,186.6399993896484400,18.5527000427246100,34.8634986877441400,216.3195953369140600,215.1614074707031200,18.5544891357421880,31.5551795959472660,63,112,86,81,63,14779,2147830363,2147876809,2148931931,2147877458,2147616850,2147424512,2148626084,2147245632,1944,3,14,47544
1369522189,5804,180.0599975585937500,19.3363990783691400,34.9651985168457000,216.3860015869140600,191.8171997070312500,19.2675895690917970,31.2327995300292970,75,115,88,82,63,14770,2147886976,2148016932,2149177270,2147878116,2147641901,2147500397,2148732086,2147251858,2849,3,15,49226
1369522244,5810,175.9799957275390600,19.5631008148193360,34.9986000061035160,218.9647064208984400,182.7402038574218800,19.5449905395507800,30.9751300811767580,83,122,88,82,63,14767,2147930587,2148110427,2149338322,2147877312,2147654957,2147552832,2148801142,2147254153,3453,2,15,17537
1369522299,5807,172.1000061035156200,19.6502990722656250,35.0144996643066400,221.1080017089843800,178.7798004150390600,19.6660499572753900,30.8111495971679700,86,118,88,81,63,14747,2147984749,2148239222,2149559698,2147878637,2147675053,2147610843,2148889481,2147261312,3137,2,14,55938
1369522354,5808,168.2599945068359400,19.8719005584716800,35.0457000732421900,220.9029998779297000,170.7252960205078000,19.9123191833496100,30.7137203216552730,91,123,90,82,63,14750,2148021961,2148299776,2149655305,2147881270,2147689179,2147640118,2148911131,2147265856,2635,2,15,55093
1369522409,5806,164.5700073242187500,20.0328006744384770,35.0688018798828100,221.6643981933593800,166.6979064941406200,20.0355091094970700,30.6211490631103500,95,119,88,81,62,14743,2148125668,2148533723,2150065874,2147883675,2147727817,2147760749,2149084918,2147275145,2020,3,15,5457
1369522464,5809,160.9900054931640600,20.2574996948242200,35.0962982177734400,221.4185943603515600,158.9595031738281200,20.2722606658935550,30.5307006835937500,106,124,90,82,62,14735,2148235629,2148774253,2150480374,2147888521,2147770093,2147873938,2149242587,2147292992,1882,3,15,64858
1369522543,5807,156.5200042724609400,20.3819999694824220,35.1139984130859400,222.2969970703125000,155.5953063964843800,20.3752193450927730,30.4416999816894530,107,124,89,82,62,14723,2147977993,2148063451,2149082916,2147881024,2147671350,2147506944,2148629778,2147254564,2489,2,15,28088
1369522622,5809,152.5399932861328000,20.6231994628906250,35.1414985656738300,222.6907958984375000,148.4161071777343800,20.5950202941894530,30.3266391754150400,118,131,91,82,62,14704,2148559168,2149384548,2151428580,2147896128,2147891062,2148113197,2149561453,2147321654,2787,2,15,26138
1369522713,5809,148.4400024414062500,20.8090000152587900,35.1589012145996100,222.0785980224609400,142.1515960693359400,20.7868900299072270,30.2751102447509770,124,130,90,84,61,14696,2148803830,2149824704,2152090285,2147902235,2147992374,2148317897,2149820251,2147340397,3549,2,15,26568
1369522804,5810,144.6600036621093800,20.9972991943359380,35.1782989501953100,223.4450988769531200,135.6546020507812500,20.9859790802001950,30.1211204528808600,138,130,92,85,63,14674,2149086390,2150340891,2152865554,2147909778,2148102921,2148534610,2150105938,2147361398,3264,2,16,17521
1369522897,5811,141.0399932861328000,21.0799007415771500,35.1838989257812500,222.3605957031250000,132.6448974609375000,21.0782394409179700,30.1359996795654300,142,132,91,85,64,14664,2149438528,2150955044,2153750043,2147920338,2148240292,2148799094,2150432978,2147391643,3087,1,16,40453
1369522988,5807,137.8800048828125000,21.2632007598876950,35.1977996826171900,221.4647979736328000,127.4005966186523400,21.2390594482421880,30.1126899719238280,145,138,87,84,62,14649,2148810715,2149553746,2151220553,2147899620,2147993801,2148161033,2149468608,2147317824,3502,2,15,19798
1369523115,5806,134.2500000000000000,21.4370002746582030,35.2117004394531250,221.1354980468750000,120.7526016235351600,21.4430198669433600,30.0424404144287100,156,136,91,83,61,14637,2148538038,2148897088,2150040420,2147890038,2147876763,2147840640,2148976027,2147282194,76,2,15,13107
1369523250,5808,129.8099975585937500,21.7674999237060550,35.2443008422851560,224.5829925537109400,110.6864013671875000,21.7520999908447270,29.7392101287841800,185,137,91,86,62,14610,2152144091,2155486217,2159612562,2147978322,2149153097,2150415890,2152403730,2147562176,3137,2,16,60833
1369523353,5810,125.8099975585937500,21.9374008178710940,35.2645988464355500,227.9801940917968800,105.0562973022461000,21.9251003265380860,29.4999599456787100,179,137,90,85,63,14573,2152051172,2154988918,2158256658,2147974957,2149085513,2150089069,2151786724,2147525001,2769,2,15,43560
1369523456,5809,121.5999984741211000,22.1921005249023440,35.2887001037597660,230.8385925292968800,97.5961837768554700,22.1544895172119140,29.2665195465087900,173,132,91,86,61,14598,2152104356,2154653997,2157081947,2147968969,2149156105,2150040969,2151502619,2147505956,2477,2,16,27133
1369523547,5807,117.4899978637695300,22.3041992187500000,35.3117980957031250,235.0258026123047000,92.9966735839843800,22.2960205078125000,29.0103092193603500,97,119,90,82,59,14661,2157433243,2163151808,2167556589,2148103232,2151393078,2153923840,2155886692,2147891702,2817,2,16,15197
1369523626,5803,112.9199981689453100,22.4290008544921880,35.3288993835449200,236.5688018798828000,89.0030593872070300,22.4189605712890620,28.8879203796386720,85,119,91,84,59,14677,2160038546,2166662948,2171232777,2148188662,2152814336,2156067995,2157802102,2148065490,2634,1,15,5849
1369523693,5808,109.1900024414062500,22.4720993041992200,35.3175010681152340,236.9701995849609400,87.4066772460937500,22.4681205749511720,28.8492698669433600,85,120,90,84,59,14671,2162676315,2170051209,2174627373,2148272301,2154294290,2158299373,2159801417,2148241910,1919,2,15,61230
1369523760,5810,105.4700012207031200,22.5317993164062500,35.3320999145507800,237.4429016113281200,85.4911727905273400,22.5271205902099600,28.8032093048095700,79,119,88,82,58,14666,2165809033,2173926848,2178483282,2148391963,2155981595,2160727652,2161920045,2148436617,1629,2,16,36409
1369523829,5806,101.4100036621093800,22.5571002960205080,35.3297996520996100,238.0061950683593800,84.4588088989257800,22.5589199066162100,28.7641601562500000,75,118,91,82,59,14676,2170026889,2179054473,2183600758,2148563620,2158342994,2164020242,2164725732,2148683053,1476,1,16,7601
1369523884,5810,98.1800003051757800,22.5911998748779300,35.3282012939453100,238.1826019287109400,83.2091064453125000,22.5974292755126950,28.7402305603027340,73,121,90,85,59,14671,2173348352,2182803108,2187155977,2148707072,2160230070,2166545252,2166785718,2148883044,1096,2,16,39922
1369523939,5805,94.9400024414062500,22.7119007110595700,35.3306999206543000,238.3108978271484400,79.3120803833007800,22.7175292968750000,28.6852893829345700,72,120,90,83,58,14673,2177317312,2187242523,2191410084,2148912475,2162586532,2169647350,2169335332,2149121755,648,2,15,48436
1369523994,5811,91.8000030517578100,22.8041992187500000,35.3498001098632800,239.5068969726562500,76.5364227294921900,22.8031196594238280,28.5958690643310550,70,121,87,82,59,14682,2181232768,2191577307,2195634395,2149159049,2165151762,2172790985,2171758217,2149359296,903,1,16,28848
1369524049,5807,88.7600021362304700,22.8577995300292970,35.3487014770507800,240.6089019775390600,74.9832077026367200,22.8510208129882800,28.5265693664550780,68,120,90,84,58,14691,2186100251,2197066614,2200928082,2149459684,2168440448,2176912320,2175030125,2149679716,3044,2,16,22984
1369524104,5806,85.8000030517578100,22.8848991394042970,35.3485984802246100,241.1092071533203000,74.0095672607421900,22.8810501098632800,28.4916191101074220,68,122,92,84,58,14670,2190088274,2201165339,2204641161,2149736393,2171434770,2180415232,2177612251,2149931264,2818,2,16,57997
1369524161,5807,82.8499984741211000,22.8922996520996100,35.3501014709472660,241.4727935791015600,73.6025009155273400,22.8936100006103500,28.4701805114746100,69,122,92,83,58,14675,2196849225,2208736530,2212220754,2150261696,2175711424,2185477504,2181441362,2150344320,2551,1,16,29312
1369524216,5809,80.1800003051757800,22.9085006713867200,35.3526000976562500,241.9707031250000000,73.0547103881836000,22.9105091094970700,28.4408607482910160,67,122,89,84,57,14671,2202082788,2213629476,2216185673,2150636653,2179983003,2190459392,2185294592,2150717814,2444,2,16,58635
1369524271,5821,77.6200027465820300,23.0051002502441400,35.3637008666992200,242.6840057373047000,70.1904296875000000,22.9988994598388670,28.3733196258544920,66,122,91,84,57,14665,2208174976,2220332745,2222855826,2151141805,2184272219,2195283748,2188800411,2151099172,2692,1,16,36780
1369524326,5809,75.4700012207031200,23.1268005371093750,35.3757019042968750,243.9053039550781200,66.6061477661132800,23.1095504760742200,28.2739696502685550,68,123,92,84,57,14666,2213062500,2225112283,2227128795,2151646784,2188341705,2199716982,2191917970,2151448228,2557,2,16,2474
1369524381,5808,73.7099990844726600,23.1338996887207030,35.3731994628906250,245.0122070312500000,65.8899765014648400,23.1316699981689450,28.2162208557128900,63,123,90,84,57,14664,2218349421,2230730733,2232662390,2152185152,2192684653,2204351369,2195033289,2151788516,2202,2,15,37558
1369524436,5808,72.2200012207031200,23.1783008575439450,35.3765983581543000,245.7510986328125000,64.4328613281250000,23.1766700744628900,28.1655597686767580,63,123,91,85,56,14658,2221855616,2233843300,2235198866,2152484150,2196423469,2208203693,2197541238,2152055963,2059,1,16,48654
1369524514,5808,69.6600036621093800,23.2208003997802730,35.3782005310058600,246.3724060058593800,62.9730911254882800,23.2217597961425780,28.1200103759765620,63,122,95,85,54,14659,2231939446,2243809261,2244407862,2153528667,2205965321,2218441636,2204747264,2152797138,1619,2,16,22761
1369524569,5806,67.1900024414062500,23.2642002105712900,35.3796005249023440,246.6524963378906200,60.8950996398925800,23.2859706878662100,28.0819396972656250,61,124,94,86,56,14658,2240001645,2251302729,2251354816,2154359606,2214162761,2226910454,2210548973,2153398427,1440,1,16,40425
1369524624,5808,64.5999984741211000,23.3304004669189450,35.3825988769531250,247.5359039306640600,59.3613700866699200,23.3333702087402340,28.0243606567382800,60,124,92,85,55,14661,2249755712,2260813979,2260219940,2155892205,2222639652,2235348196,2216133248,2154176320,1098,1,16,28228
1369524679,5807,61.8300018310546900,23.3782005310058600,35.3898010253906250,248.5717926025390600,57.7681388854980500,23.3826293945312500,27.9598503112792970,60,127,93,84,53,14649,2264356918,2275838473,2275137901,2158098093,2235727085,2248890898,2225572425,2155301330,1152,1,16,9981
1369524734,5807,58.8800010681152340,23.4470996856689450,35.3870010375976560,249.1795043945312500,55.6931991577148440,23.4467792510986330,27.9079093933105470,58,126,92,84,57,14650,2271151021,2281125147,2279382619,2159750546,2245145069,2257506468,2230845028,2156070957,1284,1,16,55341
1369524789,5808,55.8899993896484400,23.4839000701904300,35.3634986877441400,249.7881011962890600,54.5893516540527340,23.4809303283691400,27.8680992126464840,57,124,91,87,56,14654,2287901430,2298659702,2297350738,2162921938,2260222720,2272722761,2241441243,2157553371,1290,1,16,12399
1369524846,5809,52.9700012207031250,23.5620002746582030,35.3406982421875000,250.5794982910156200,51.4334716796875000,23.5785598754882800,27.7949905395507800,57,123,93,85,58,14646,2300039259,2309612141,2307714861,2165824155,2273575652,2285270710,2249715273,2158809691,1150,1,16,7351
1369524901,5807,50.4099998474121100,23.5972995758056640,35.3255004882812500,250.7147064208984400,51.1292800903320300,23.5879802703857420,27.7855606079101560,55,122,90,86,56,14655,2306686921,2314576329,2311880009,2168588077,2283872457,2294450276,2255527049,2159865846,878,1,16,31715
1369524956,5805,48.0600013732910160,23.5289001464843750,35.2719993591308600,251.0697021484375000,52.5322113037109400,23.5445709228515620,27.7876796722412100,56,122,90,85,57,14624,2323734281,2331541312,2329279222,2172836041,2298619145,2309038729,2265725668,2161457947,442,2,16,41317
1369525011,5808,45.9900016784668000,23.4193992614746100,35.2128982543945300,251.4680023193359400,54.7260513305664060,23.4766998291015620,27.7976799011230470,56,123,92,86,55,14654,2333487616,2339709878,2335932141,2175593005,2308795821,2318315803,2271864429,2162487104,299,2,16,9465
1369525066,5805,44.2099990844726560,23.4148998260498050,35.1912002563476560,251.4660034179687500,55.2942008972168000,23.4591293334960940,27.8049392700195300,55,121,90,84,56,14641,2345484946,2349627949,2344413668,2177972452,2322585316,2332083885,2281230262,2164034176,766,2,16,28995
1369525167,5806,41.7500000000000000,23.9715995788574220,35.2863006591796900,249.6963958740234400,39.5182495117187500,23.9476203918457030,27.6861400604248050,54,120,94,84,56,14658,2370647579,2374111872,2368997110,2186187017,2342239844,2349431094,2292290057,2166542354,1262,1,16,18361
1369525234,5809,40.3600006103515600,24.2553005218505860,35.3353996276855500,248.7624969482422000,29.8412399291992200,24.2478599548339840,27.6071300506591800,54,119,89,85,57,14664,2368485385,2368331337,2360999021,2186276818,2353816758,2357604717,2295811904,2166748397,327,1,16,57836
1369525349,5810,38.5999984741210940,24.7684001922607420,35.3819999694824200,245.3085021972656200,13.5505399703979500,24.7543907165527340,27.5564804077148440,53,122,92,85,60,14649,2382011876,2381929088,2374763922,2191341403,2376906550,2375733632,2305912466,2168702217,191,1,16,16485
1369525499,5806,35.8499984741210940,24.9789009094238280,35.3819007873535160,243.1546936035156200,6.3986949920654300,24.9772205352783200,27.5626201629638670,52,121,93,84,55,14653,2404105453,2404748690,2399105197,2203319734,2415746779,2408890688,2325922971,2173271524,1671,1,15,58112
1369525554,5808,33.6800003051757800,25.1219997406005860,35.3698005676269500,242.0843963623047000,1.7321970462799072,25.1227798461914060,27.5524406433105470,52,123,89,85,57,14664,2423067364,2423277540,2418063588,2212328566,2439874962,2430049965,2340318884,2176796699,1494,1,16,14501
1369525609,5805,31.6499996185302730,25.3292999267578120,35.3526000976562500,240.7677001953125000,-5.6460409164428710,25.3531799316406250,27.5200996398925780,51,123,90,85,52,14667,2418564644,2417487085,2413263817,2217896484,2447871488,2434576749,2341777600,2176962980,468,1,16,25416
1369525664,5809,30.1299991607666000,25.5091991424560550,35.3246994018554700,239.4810028076172000,-10.7752599716186520,25.5135402679443360,27.5142307281494140,52,122,93,83,51,14651,2433798253,2435773860,2432895570,2227738313,2460050102,2443653842,2347353188,2178756964,3118,0,16,53887
1369525778,5810,28.4500007629394530,25.6256008148193360,35.3133010864257800,237.1907043457031200,-15.1725902557373050,25.6511497497558600,27.5626392364501950,52,119,91,84,59,14662,2419036425,2417202496,2411969865,2225838363,2470267913,2451746157,2352712173,2180314130,3162,1,16,23411
1369525833,5811,27.0200004577636720,25.7052993774414060,35.3140983581543000,236.2290954589843800,-17.4505100250244140,25.7224807739257800,27.5779304504394530,52,117,91,84,55,14663,2451793097,2454231369,2454070080,2245739392,2492692096,2471461568,2364842797,2183829028,3232,1,16,63113
1369525900,5805,25.3400001525878900,25.7213993072509770,35.3146018981933600,235.5446014404297000,-18.1895999908447270,25.7456302642822270,27.5996704101562500,52,118,89,83,59,14654,2462604480,2464773046,2464215689,2254888109,2507336045,2481731245,2370676233,2186533595,2836,0,16,26322
